Location: Calgary
(51.0833°N, 114.0833°W)
Time: 01:20:26
(UTC-07:00)

Envisat - Visible Passes

Search period start: 21 November 2018 00:00
Search period end: 01 December 2018 00:00
Orbit: 764 x 766 km, 98.2° (Epoch: 21 November)

Date Brightness Start Highest point End Pass type
(mag) Time Alt. Az. Time Alt. Az. Time Alt. Az.
21 Nov 6.1 06:54:36 10° ENE 06:56:55 13° E 06:59:14 10° ESE visible
21 Nov 3.7 18:13:18 10° ESE 18:17:40 30° ENE 18:22:02 10° N visible
21 Nov 3.8 19:52:43 16° SSW 19:56:30 48° W 20:01:26 10° NNW visible
22 Nov 4.4 17:38:09 10° E 17:41:20 17° NE 17:44:32 10° NNE visible
22 Nov 2.9 19:15:40 17° SSE 19:19:41 87° ENE 19:24:48 10° NNW visible
22 Nov 5.7 20:56:27 10° WSW 20:59:24 15° W 21:02:22 10° NW visible
23 Nov 5.7 07:19:00 10° NE 07:22:50 21° E 07:26:39 10° SE visible
23 Nov 3.2 18:38:37 12° SE 18:43:02 46° ENE 18:47:53 10° N visible
23 Nov 4.7 20:18:49 15° SSW 20:22:14 30° W 20:26:42 10° NNW visible
24 Nov 6.4 06:44:49 10° ENE 06:45:33 10° E 06:46:17 10° E visible
24 Nov 4.0 18:02:29 10° ESE 18:06:35 25° ENE 18:10:40 10° N visible
24 Nov 3.5 19:41:45 19° S 19:45:16 59° W 19:50:19 10° NNW visible
25 Nov 4.6 17:27:39 10° E 17:30:18 14° NE 17:32:57 10° NNE visible
25 Nov 2.8 19:04:39 18° SSE 19:08:29 72° ENE 19:13:34 10° N visible
25 Nov 5.4 20:44:51 11° SW 20:48:04 19° W 20:51:38 10° NW visible
26 Nov 5.8 07:08:10 10° NE 07:11:31 17° E 07:14:50 10° SE visible
26 Nov 3.4 18:27:32 11° SE 18:31:54 38° ENE 18:36:35 10° N visible
26 Nov 4.4 20:07:44 18° SSW 20:10:57 36° W 20:15:39 10° NNW visible
27 Nov 4.1 17:51:44 10° ESE 17:55:31 21° ENE 17:59:17 10° N visible
27 Nov 3.1 19:30:35 21° S 19:34:03 72° WSW 19:39:09 10° NNW visible
27 Nov 6.0 21:12:25 10° WSW 21:14:00 11° W 21:15:36 10° WNW visible
28 Nov 5.3 07:33:01 10° NE 07:37:21 28° E 07:41:40 10° SSE visible
28 Nov 4.7 17:17:21 10° ENE 17:19:17 12° NE 17:21:14 10° NNE visible
28 Nov 2.9 18:53:25 17° SE 18:57:19 60° ENE 19:02:21 10° N visible
28 Nov 5.1 20:33:37 14° SW 20:36:44 23° W 20:40:45 10° NW visible
29 Nov 6.0 06:57:29 10° NE 07:00:10 14° E 07:02:49 10° ESE visible
29 Nov 3.6 18:16:21 10° SE 18:20:47 32° ENE 18:25:16 10° N visible
29 Nov 4.0 19:56:26 19° SSW 19:59:41 44° W 20:04:34 10° NNW visible
30 Nov 4.3 17:41:05 10° E 17:44:27 18° NE 17:47:49 10° NNE visible
30 Nov 2.9 19:19:11 19° SSE 19:22:50 87° WSW 19:27:57 10° NNW visible
30 Nov 5.7 20:59:58 10° WSW 21:02:38 14° W 21:05:19 10° NW visible
